EHI
0 0 0 0 0 0 0 0 0 0 0 0 2 8 16 22 27 33 36 39 47 56 63 72 79 85 95 99 96 92 90 91 90 88 87 85 84 81 75 66 63 65 68 70
0 0 0 0 0 0 0 0 0 0 0 0 3 10 19 26 31 37 40 44 52 62 69 75 80 85 92 96 95 92 91 91 90 88 86 84 81 78 70 60 55 54 55 57
0 0 0 0 0 0 0 0 0 0 0 0 2 8 18 27 34 39 43 48 55 62 67 70 74 77 82 86 88 88 87 88 88 85 83 81 78 73 62 49 41 35 33 35
0 0 0 0 0 0 0 0 0 0 0 0 0 3 11 22 32 39 45 48 50 53 56 58 62 66 69 71 75 76 77 80 82 82 79 77 72 63 50 37 27 20 17 17
0 0 0 0 0 0 0 0 0 0 0 0 0 1 5 16 29 40 48 49 47 46 45 46 49 53 55 57 59 62 64 67 72 74 73 70 61 47 35 25 18 13 10 9
0 0 0 0 0 0 0 0 0 0 0 0 0 1 8 19 30 39 46 46 41 36 33 32 33 36 39 42 45 47 51 54 57 59 60 55 44 31 23 17 11 8 6 4
0 0 0 0 0 0 0 0 0 0 0 0 1 6 19 30 32 33 33 30 25 20 17 16 17 20 23 25 28 33 37 40 42 42 41 35 25 17 13 10 7 4 3 1
0 0 0 0 0 0 0 0 0 0 0 1 6 18 32 37 32 24 18 14 11 8 7 6 7 9 11 12 14 19 22 23 24 23 20 16 11 8 6 4 3 2 1 0
0 0 0 0 0 0 0 0 0 0 0 1 8 23 33 34 27 16 8 6 4 3 3 2 1 2 3 4 6 8 9 9 8 7 5 4 3 3 2 1 1 1 0 0
0 0 0 0 0 0 0 0 0 0 0 0 5 12 22 26 22 11 5 4 3 2 1 1 0 0 0 0 1 2 2 1 1 1 0 0 1 1 1 0 0 0 0 0
0 0 0 0 0 0 0 0 0 0 0 0 0 3 11 19 17 9 4 3 2 1 0 0 0 0 0 0 0 0 0 0 0 0 0 0 0 0 0 0 0 0 0 0
0 0 0 0 0 0 0 0 0 0 0 0 0 2 8 14 12 5 3 2 1 0 0 0 0 0 0 0 0 0 0 0 0 0 0 0 0 0 0 0 0 0 0 0
0 0 0 0 0 0 0 0 0 0 0 0 0 1 6 9 7 3 2 1 0 0 0 0 0 0 0 0 0 0 0 0 0 0 0 0 0 0 0 0 0 0 0 0
0 0 0 0 0 0 0 0 0 0 0 0 0 1 4 6 5 2 1 0 0 0 0 0 0 0 0 0 0 0 0 0 0 0 0 0 0 0 0 0 0 0 0 0
0 0 0 0 0 0 0 0 0 1 1 0 0 1 3 5 4 1 0 0 0 0 0 0 0 0 0 0 0 0 0 0 0 0 0 0 0 0 0 0 0 0 0 0
0 0 0 0 0 0 0 0 0 1 1 1 0 2 4 5 3 1 0 0 0 0 0 0 0 0 0 0 0 0 0 0 0 0 0 0 0 0 0 0 0 0 0 0
0 0 0 0 0 0 0 0 0 0 1 2 2 3 4 3 2 1 0 0 0 0 0 0 0 0 0 0 0 0 0 0 0 0 0 0 0 0 0 0 0 0 0 0
0 0 0 0 0 0 0 0 0 0 1 2 3 2 2 1 1 1 0 0 0 0 0 0 0 0 0 0 0 0 0 0 0 0 0 0 0 0 0 0 0 0 0 0
0 0 0 0 0 0 0 0 0 0 1 2 3 2 0 0 0 0 0 0 0 0 0 0 0 0 0 0 0 0 0 0 0 0 0 0 0 0 0 0 0 0 0 0
0 0 0 0 0 0 0 0 0 0 0 1 2 1 0 0 0 0 0 0 0 0 0 0 0 0 0 0 0 0 0 0 0 0 0 0 0 0 0 0 0 0 0 0
0 0 0 0 0 0 0 0 0 0 0 1 1 0 0 0 0 0 0 0 0 0 0 0 0 0 0 0 0 0 0 0 0 0 0 0 0 0 0 0 0 0 0 0
0 0 0 0 0 0 0 0 0 0 0 0 0 0 0 0 0 0 0 0 0 0 0 0 0 0 0 0 0 0 0 0 0 0 0 0 0 0 0 0 0 0 0 0
0 0 0 0 0 0 0 0 0 0 0 0 0 0 0 0 0 0 0 0 0 0 0 0 0 0 0 0 0 0 0 0 0 0 0 0 0 0 0 0 0 0 0 0
0 0 0 0 0 0 0 0 0 0 0 0 0 0 0 0 0 0 0 0 0 0 0 0 0 0 0 0 0 0 0 0 0 0 0 0 0 0 0 0 0 0 0 0
0 0 0 0 0 0 0 0 0 0 0 0 0 0 0 0 0 0 0 0 0 0 0 0 0 0 0 0 0 0 0 0 0 0 0 0 0 0 0 0 0 0 0 0
0 0 0 0 0 0 0 0 0 0 0 0 0 0 0 0 0 0 0 0 0 0 0 0 0 0 0 0 0 0 0 0 0 0 0 0 0 0 0 0 0 0 0 0
Wind_Speed
11 12 12 13 15 17 17 17 15 12 10 13 13 11 6 3 2 5 7 6 5 5 6 7 8 9 11 12 11 10 9 9 8 6 6 5 4 3 3 3 4 4 3 2
12 13 15 14 11 12 15 16 12 5 7 8 8 6 2 4 5 5 6 6 8 9 10 10 8 8 9 9 9 9 8 9 8 6 5 4 4 4 4 4 5 5 4 3
13 10 9 10 10 10 13 14 11 7 6 8 8 8 7 6 8 9 10 11 11 13 12 11 9 8 8 5 5 6 6 7 7 6 5 4 4 3 3 4 4 6 7 6
11 11 9 9 10 11 12 13 12 10 9 9 12 8 11 10 9 11 13 13 13 12 13 11 11 11 9 7 4 5 5 5 5 6 6 6 5 4 4 5 5 7 8 7
11 9 9 11 12 13 13 11 10 11 11 10 13 8 9 12 11 11 13 14 14 14 14 13 14 13 13 10 7 6 6 5 4 4 5 6 5 6 6 7 8 7 7 8
14 12 11 11 11 11 11 10 9 11 11 13 15 10 8 6 10 11 13 13 13 13 12 13 14 15 14 13 10 9 8 8 7 7 6 7 9 9 10 9 8 7 7 8
13 13 11 10 11 11 11 10 8 10 11 13 14 6 7 9 12 13 13 13 13 13 13 14 15 14 14 14 13 11 12 11 10 11 10 10 11 11 11 9 9 8 7 8
11 10 10 10 12 10 13 15 12 7 8 10 13 8 10 15 16 15 14 14 14 14 13 14 13 12 13 14 14 15 15 14 14 13 13 12 12 10 9 11 10 10 9 9
5 8 8 10 13 13 13 15 15 11 12 10 3 9 12 16 17 16 15 14 14 13 13 13 13 13 14 14 15 15 16 16 16 16 16 15 14 14 13 13 12 10 9 9
2 7 8 7 10 12 13 13 9 9 8 6 4 9 11 18 17 16 15 14 13 13 13 13 12 13 13 13 14 15 16 17 16 15 14 14 15 14 14 13 14 12 11 10
3 4 6 5 8 10 10 11 10 8 5 4 4 2 4 17 17 17 15 15 13 13 12 12 12 12 13 13 14 14 15 15 15 15 15 15 14 14 14 12 12 11 10 9
3 2 5 6 8 8 8 9 9 8 6 5 2 2 7 16 17 17 16 15 14 13 12 12 12 12 13 13 13 14 13 14 14 14 14 14 13 13 12 11 10 9 9 8
5 2 4 4 4 5 5 7 7 7 6 6 1 6 11 17 17 15 15 14 13 13 13 12 12 12 12 12 12 12 12 13 13 13 13 12 12 11 11 10 9 9 8 8
2 2 1 3 6 4 6 7 7 7 6 4 5 12 14 16 16 15 14 13 13 12 12 12 11 11 11 11 11 11 12 12 12 12 12 12 11 10 10 9 8 7 7 6
1 2 2 4 5 2 3 4 7 8 8 5 10 11 12 15 16 15 14 14 13 13 12 12 11 10 10 10 10 10 10 10 10 11 11 10 9 9 8 7 6 5 5 6
1 2 3 5 5 3 3 6 7 9 11 12 13 9 11 14 13 14 14 14 14 13 12 12 11 11 10 10 9 9 9 8 9 10 10 9 8 8 7 6 5 4 4 4
3 2 4 3 2 3 4 8 8 9 9 6 6 8 13 14 13 13 13 13 13 13 12 11 10 10 9 8 8 8 8 8 8 8 8 8 7 7 6 6 5 5 4 4
5 4 4 2 0 2 5 6 9 11 12 12 15 15 13 13 12 11 11 13 13 13 12 10 9 9 8 7 7 7 7 7 7 7 7 7 7 7 6 5 5 4 3 2
3 4 5 2 1 7 5 4 5 7 9 12 15 15 16 17 15 10 9 11 12 12 11 9 8 8 7 7 6 6 6 6 7 7 6 6 6 6 5 5 4 3 2 2
2 2 4 4 2 4 5 6 5 6 7 10 14 15 16 14 8 7 9 11 12 11 9 9 8 7 7 6 5 5 6 6 6 7 6 6 6 5 4 4 3 1 1 2
2 2 2 3 3 7 6 3 1 1 6 10 11 12 11 5 8 13 13 12 11 10 9 9 8 7 6 5 5 5 6 6 6 6 6 5 4 3 3 2 1 1 1 1
5 5 3 3 4 6 7 4 6 7 11 11 11 12 13 15 18 16 14 13 12 11 10 9 7 7 6 5 5 6 6 5 5 5 5 4 2 2 3 1 0 1 1 1
6 7 6 8 7 8 9 10 10 11 13 13 14 15 17 18 17 15 13 12 11 10 9 8 8 7 6 5 5 6 5 4 4 4 3 2 2 2 1 1 1 1 2 2
5 4 7 9 9 10 11 12 12 13 14 14 16 17 18 18 17 15 13 11 10 9 9 8 8 8 6 6 5 5 4 3 3 3 2 2 1 1 1 2 3 4 5 5
6 4 7 10 11 11 11 11 13 14 15 16 16 16 16 17 16 14 12 11 9 8 8 8 7 7 7 6 6 5 4 3 2 1 1 1 1 1 2 4 5 5 5 4
4 4 4 7 11 10 12 12 14 14 15 16 16 16 15 14 14 13 11 10 9 8 8 7 7 7 7 6 6 5 4 3 2 1 1 1 1 1 2 5 5 7 6 5
Wind_Direction
226 236 241 237 233 251 273 285 265 238 185 192 203 213 229 209 191 171 174 170 130 93 106 109 115 134 132 137 146 157 166 161 162 167 173 176 175 150 117 95 83 89 92 95
240 239 252 259 250 250 263 272 271 235 166 191 187 185 153 77 85 93 105 101 89 85 66 67 85 104 114 127 145 161 168 164 169 167 167 164 154 136 118 95 78 73 72 62
249 260 263 261 258 249 255 262 263 249 204 197 183 178 147 113 90 79 73 71 64 68 64 54 57 69 88 103 139 159 160 158 165 161 153 145 135 129 118 104 81 62 61 54
262 253 255 252 251 247 248 250 256 255 231 203 204 190 162 147 114 85 69 66 62 55 56 50 51 49 56 67 84 100 117 134 148 156 159 162 161 149 118 101 86 72 64 61
271 260 246 242 240 240 250 244 243 245 243 240 219 205 175 161 136 98 77 70 64 55 48 42 42 44 40 41 63 74 82 90 110 135 148 150 132 118 108 101 93 80 67 59
276 277 263 248 242 240 252 253 235 241 241 240 238 220 168 164 134 109 88 78 71 66 57 46 43 43 40 37 47 63 71 69 78 87 94 111 119 117 112 105 97 83 69 60
266 253 250 248 240 228 237 242 224 218 224 234 228 209 109 101 108 109 99 84 73 66 59 51 45 42 41 41 44 55 64 62 68 76 76 81 91 95 96 96 89 82 74 64
289 268 232 226 236 222 222 237 239 234 231 231 211 145 122 112 109 107 101 91 81 71 63 59 56 51 49 47 48 54 61 59 61 68 72 74 78 81 80 81 84 80 75 70
294 287 241 214 228 235 218 232 249 272 285 281 106 108 125 127 123 117 106 94 85 77 70 66 61 58 57 55 55 59 65 65 63 67 71 71 74 79 81 79 77 76 76 77
269 282 264 218 216 235 247 236 239 243 266 271 200 179 166 154 138 124 113 101 91 84 77 70 66 65 64 65 65 66 68 71 71 71 73 77 76 78 81 81 81 80 78 77
281 288 278 240 223 221 236 245 250 258 228 248 222 257 168 151 135 125 115 107 101 93 86 81 77 73 72 71 70 71 72 74 74 74 76 78 79 79 80 80 81 82 80 78
349 307 282 271 265 255 231 254 257 266 282 271 178 80 99 122 121 118 114 109 103 97 91 86 83 81 77 75 74 74 76 77 78 80 82 81 82 83 82 82 82 81 80 78
337 339 304 290 272 286 252 253 270 284 283 294 3 107 99 109 112 115 115 112 108 103 97 91 86 83 82 81 81 81 83 85 87 88 87 86 84 84 84 83 83 82 82 81
255 5 1 284 286 270 293 301 307 300 299 338 85 130 134 125 123 121 117 114 109 105 101 97 92 88 87 87 88 89 88 89 91 91 89 88 86 87 87 87 87 88 91 90
329 334 245 243 255 242 316 336 4 3 9 37 101 122 136 132 130 127 124 120 115 111 107 105 102 98 94 92 91 89 90 92 94 95 94 93 93 93 92 92 93 93 90 89
9 283 261 241 210 160 46 28 34 38 59 88 100 96 120 120 124 128 129 127 122 118 114 111 108 106 102 99 99 98 98 99 100 100 101 102 103 102 101 99 95 90 80 71
314 302 283 271 161 160 58 32 44 51 53 91 99 112 125 123 127 130 132 129 128 124 120 115 111 106 105 104 106 108 106 104 105 106 108 110 109 105 105 103 95 83 76 72
326 319 289 303 231 92 80 66 74 72 65 80 102 117 122 120 116 114 125 128 126 124 121 118 116 113 111 110 108 109 109 110 110 109 111 113 112 107 105 98 91 83 71 63
346 317 307 324 93 113 113 78 67 88 84 97 112 115 117 115 105 95 110 121 125 125 124 124 123 123 123 122 122 123 122 123 117 112 112 111 108 102 96 89 84 69 52 45
194 256 290 323 18 87 81 57 69 108 106 117 127 132 139 142 125 125 127 125 124 126 127 127 127 126 123 126 135 135 127 117 109 106 102 99 96 95 87 76 71 55 21 38
258 247 317 354 77 84 48 20 321 0 126 136 138 143 150 139 114 130 132 126 127 128 131 133 132 130 131 136 137 125 117 111 108 108 105 104 110 119 104 87 56 351 16 51
343 351 12 9 63 71 20 42 59 94 117 127 126 125 117 110 117 128 131 132 134 134 135 135 131 132 136 140 133 120 112 114 114 112 108 106 97 73 88 91 34 359 334 313
35 28 33 47 75 79 63 81 100 114 119 119 119 121 123 124 128 130 132 135 136 137 137 137 136 135 133 133 127 123 124 128 123 114 106 101 83 65 43 334 343 11 3 8
104 83 107 106 105 101 95 98 102 107 114 118 124 128 130 130 133 134 136 138 140 141 142 142 141 139 138 140 137 138 137 131 124 130 144 161 150 137 78 17 31 42 24 16
100 122 103 110 123 117 106 106 109 112 115 119 125 129 132 134 137 138 140 142 144 143 142 144 143 142 142 144 144 144 137 128 130 155 184 218 167 136 102 78 48 50 63 48
88 97 141 143 149 134 126 123 122 122 122 125 127 127 133 137 138 139 138 138 139 140 142 143 144 144 143 144 146 149 151 154 176 226 242 251 166 156 157 140 117 61 95 111